"Pseudo-MPEC" for A10UeAm

Created 2023 Jun 10 23:22:02 UT using Find_Orb

Click here for an explanation of pseudo-MPECs

 
 Astrometry: 
     A10UeAm* C2023 03 28WBh^k`p*1LRvk9b:8%'ow:bdd*xL6F)XbLpS2f^w8js]]\ROaYE^W68
     A10UeAm  C2023 03 28sa8lTd(H:cNdp`P.]CS1Z6m2@Tlem?LIWr$v$DnALXlfcT#`-4txW68
     A10UeAm  C2023 03 28'-6S]]rc,*\d6C$+P=0Ze?@LT;J5hKU%.Mio1KY7aoAstrometryW68
     A10UeAm  C2023 03 28FAyd+;xJ5?wC4!XjD^EIFL8;^=uO%QEKLDi2:h\)a3LO5^?YB(iDW68
     A10UeAm |C2023 03 29u^(832qeWwkUf#I.:RIMXx=qO952\Z-AyTNq?_ne;4BC\qFd)EZF807
     A10UeAm |C2023 03 29p0`,BB@)=6(reyk$GVs\y8Y5c%yl$ZmuDS[fOUImkQe0+V5Rg.4f807
     A10UeAm |C2023 03 29FG!cMUV+iI3V;S_pV,-KL8\aEIJ3iJ[j4byjmBmNU#Cbb:oV@\rD807
     A10UeAm 0C2023 03 29=%HQnrf9,(8PO[w#jG-c;%2K+R-X/+u4S]Llv2th=J#:'H;(/$w4X07
     A10UeAm 0C2023 03 296HtB0R+;M@I.WuTSaOu$SS?4UZqd8nx(qLJ'$VB,Pkn-@H:\Qi`*X07
     A10UeAm |C2023 03 30B%sQ9j;Q8n3c@^jyng_x2S+-!yiSBO7?/dpH.2TGg0%Uysv8q.kV807
     A10UeAm |C2023 03 30;G/*TR4EqC0gEyS?Yu*Z_3N[yCK0_rsCredacted;KWLvT\dTT=-807
     A10UeAm |C2023 03 30tQ\$e7=x?RXru*(42)'C/$RkB,E9msjPwUAn.`fXPp;MqP0RN?0d807
     A10UeAm "C2023 03 31R2clY]6c4F*].D]tW3ErRLC\\u0U,6s8\^6?uy.u^k)((W_1HNT^W88
     A10UeAm "C2023 03 31dPIs6_lNO3RHbQ0]i!fr^C1C(w:G'c@q#3F?3KuV)2F*RrBO)BOLW88
     A10UeAm 1C2023 03 31xX$9%_VyWYfWR(D#!sZ*+h7x1f[-.`NfSS%/,6ismA!kyVdY:I9)Q62
     A10UeAm 1C2023 03 31`knML!iZa=:J$VpG)B+/A;tVwm_^^-11.TEJKFOB+vii:2t$-iRbQ62
     A10UeAm 2C2023 04 01EOU^3:kDKTRp$#pvRP?8'b'uNUy6DQxD'S\:mN9r\kC:I96!D/9KQ62
     A10UeAm 2C2023 04 01L@FOFjtQhrXBTMi(@e_X4Rojv$)GP$H+-Hu'yS2:.9)j3y/x^ggkQ62
     A10UeAm 2C2023 04 016Wg;:iErk*9Za8x;$8#=umPu)3DJ$Z'lOu5OHYN?mi1k^6]a-YU8Q62
     A10UeAm dC2023 04 04.66059018 41 49.274-35 48 24.78   ~45Aq 19.2 GVNEOCPQ62
     A10UeAm dC2023 04 04.67469318 41 49.114-35 48 27.93   ~45Aq 19.1 GVNEOCPQ62
     A10UeAm KC2023 04 06.1AAUEFjls![HI;\Q4OuEuY5XAwkv5Sa0u=Uua5AZ6):=eEQn@PiX03
     A10UeAm KC2023 04 06@u=Gq,!XpPO%%6:FK*TDssD$gd.1N39E4d+iwU?Zx=NxhYvWMI!+X03
     A10UeAm KC2023 04 066@:!8BhRB#pMlm)ft=dklc3K=c\k2^vXj$p3F/Is\p@?\n79]=b[X03
     A10UeAm KC2023 04 06iDU\V2:G6146gC``Y0[SFOjFiMdI5ym3%Hp[Z0(Juac_!#?1^rWhX03
     A10UeAm KC2023 04 06W1CAZ2@MEEP;[0c5UZvr?QP8b4dsVZPg#LH5FO5l%P'j0j%@JU8DX03
     A10UeAm KC2023 04 06,B6H1UAg5KUmwW\D,qj2Hq2;[Rf6EdBgTDx/e@y6uFhR(2^VJM4hX03
     A10UeAm %C2023 04 07aA.w@rsa'=:6\Zis/5;aMy)Jt0P.xl)-iIYce`%Qc_t6ndQ/(Xb;W88
     A10UeAm %C2023 04 072tK=\#/f0RiD;T^vYi9rd)@N4)0FldaX^fOti^`TkPR`^6\ZOjx2W88
     A10UeAm 3C2023 04 08eLn6F`-s8MH2=aMKRW#8;9O3s$XqkCwkkg8,Ay%YMMFD4sof*rYEW88
     A10UeAm 3C2023 04 08e.39fkdW4#Y];e%nj8ur^?,1hM;:,;Z:NMZ?78--;fk0RJ$vbTn!W88
     A10UeAm KB2023 04 13MUf\(0BwD6%qpDc.+p#K;3WelTN)M1oCmQTiNR%SJvQ3*6]bbyO?M49
     A10UeAm KB2023 04 13uMFu*OIoEF=vT,K-2XW.dDl'TZ^\yYcEUGuX=@$Z3fA@RTw`u-r;M49
     A10UeAm KB2023 04 135]yK634[B6VSPXgGk-Be`vn7-g:IQMg5;HW+Y1^/D%0i3SUMOqMxM49
     A10UeAm MC2023 04 17/5eI8gTnnA*ci;oM-fq3v`);M3gT1vCvy[=S*1t4t=OC@VQ`Md6hQ62
     A10UeAm MC2023 04 17d@]kSJydFC:EXWxbBLPpD:\k$d/:RMZ53`qQ`:k,M^iDe@;/UM6QQ62
     A10UeAm MC2023 04 17/E,\vm6qyvfj\mmu\k`,o;Bm;MmJr,xv`F22EbRiEE6@'(^hO:*qQ62
     A10UeAm KC2023 04 21-Ex!JpU0I+qoq]nY5]XZNx;VXyD-:(XGNVR'1bP3ygpmG_*Y?XX5I47
     A10UeAm KC2023 04 21hj43R(;0PCA,OHrlR4%QVPxW5(6/;HD)92pk;fUEcv+9x#+Pl0'HI47
     A10UeAm  C2023 04 24:Y%*bo9W7`1#Ww1c`.oy`L*7orfcREmn;`KYQejUvFssW7Z?`Y2qW68
     A10UeAm  C2023 04 24Qgi=PA=DiX^:k6[k[dv8UV2;ilN-c%NRv%N9#=Ka2w8QBn2-D%TkW68
     A10UeAm  C2023 04 24XD],+FeZRa9ZUpRZ1dQ/V(+JolIN/#sg!VM-V8AbS4Cb*uC;9t$oW68
     A10UeAm  C2023 04 24Vds%VBSeLR!\Y.lq)UKqR3U'0q@^O5;9b@J_N5_B`7!I)M,^x$6eW68
     A10UeAm 3C2023 05 02Y=v*744OMipQNDg3xcs5dv?7)Wi-n/fe_K#s_)IfLsq+goH;_f7XX07
     A10UeAm 3C2023 05 02X@5G']0H#osiXclD6ej\!X+IMD6dn_8ofO4Ru-2?v0fOZVe\hK+;X07
     A10UeAm 3C2023 05 02oAZri?d_+m?tFn[X3!.w?NMy_8[McAC3#_,BIE'!2]Oy^7wWf$VKX07
     A10UeAm 3C2023 05 02plR43uGOx,[@/Z%x#B1`K0xbaU(ef-\X`pE[=t4#0.2D07C43.N^X07
     A10UeAm 3C2023 05 02r'!Z\)yk5ZQ+%fT%/kbs)+am6Uf=VS9SV*ij5tJQ$V0v?^9_D!kjX07
     A10UeAm 2C2023 05 07VW-f1;eqd.;\e3C2x?RXk9Enm6K%wkj8K//6=K6jlg4$e-V?e!XgX07
     A10UeAm 2C2023 05 07GM57R:4w^MIn69e;Oe,u-@SLMdlme$Zf+I#7=l5?8JUQ5qZ!WUbwX07
     A10UeAm KC2023 05 09b4$Lql_,XDU6\s(KO!cyVn4'Ni^]Q5EfnrF?d+KvP[ff.H77IT6ZL87
     A10UeAm KC2023 05 09HJavnYE5X1)*2#H=(EGce3K4$b]XR=WYKY5pnH\RRHU!e]g!eS%iL87
     A10UeAm KC2023 05 0977Aclick.xgt#FdNo20!2V?wmsH9sOlRr]i9l-l3\o4FC]2-^P?nL87
     A10UeAm KB2023 05 18JqaC5d6b9):1@*$fkpM@hs=K+K/6D#`o]+(tGuWb,wl1][reU`8s859
     A10UeAm KB2023 05 18exxN4BQt8IWw,+D'b,4:RyXj4P/jjGcUEa)Y)4-u7?LCJKKgW9[d859
     A10UeAm KB2023 05 188m.w=pgdYv0@YC$GQS^p\t+aavli4rf+i-p]Zwp#U=..V$h8Ssy:859
     A10UeAm IC2023 05 276SkpE4_qUj:b:=tnpRI4`WD?\rM5f=hW4heregFs^!=forS=2J=`M21
     A10UeAm IC2023 05 2748gSxFLR\xqdC_v1B^Cq`4AXt_Fgt%HW^x7/b[n8lNZQlW-dru_PM21
     A10UeAm 2C2023 05 31Iyvj%xd^dp^b-m%B;=iiR@5/'y[91%8-pq_40_yw;gD@098y\jsrX07
     A10UeAm 2C2023 05 31STK50d5V.+(G@8as^4_]/ov!H3Eu_xO0g_Ohu+PZ3w%^MCw)4KRdX07
     A10UeAm 2C2023 05 31UwKP\#ZGk?v3n[=)In]N-1L*M/rRa\XZ)Gp`'=+9Iu5Rx*5L7RuMX07
     A10UeAm KC2023 05 31amY#O7?ct@Z[GQfk_K@t#XlDomwDt^k.auE[^tUr/#Ju%o4*i/a-M49
     A10UeAm KC2023 05 31AS+7\5Ou']6\q`V'3?*];c,)Gul.\4agK$`EyA(5Ca^OhqnL.cinM49
     A10UeAm KC2023 05 31m6i_DKs_lx!p9FIZ(_$GPhgDnu.]iUs2:q]hV)f2T%2#:;brb4l*M49
     A10UeAm 3C2023 06 01!jxPR[s-.+H%Bj6KVH%64)POEHEb\kF7\Eg4Z`vikxH3h^8D`rZuX07
     A10UeAm 3C2023 06 01U0$2Jnoc_+.LtB2p1Wn4D\L7Z3/;bd%flj[::DE,L?N95:J)No?,X07
     A10UeAm KC2023 06 08gooOYNpw@`X[TV[explanationa?k/_K83t2gZfUO[^./T_*oreIL87
     A10UeAm KC2023 06 08NIEaCjROgD;V]uv8JWQ2A+q%Tij$rD'=+Ja!V6h!,]1iX.\\?3n`L87
     A10UeAm KC2023 06 08r@eM//Q[-2R979:m)]n5t%-h;i-N8nFX3sAw$W*7/wN#lu,)jB#JL87

Station data:
(807) Cerro Tololo Observatory, La Serena  (S30.169133 W70.805900)  Chile.
   Observer R. Holmes. 0.61-m f/6.5 astrograph + CCD.
(859) Wykrota Observatory-CEAMIG  (S19.823980 W43.690300)  Brazil. 0.30-m
   Schmidt-Cassegrain.
(I47) Pierre Auger Observatory, Malargüe  (S35.495440 W69.449700)  Argentina.
    Observer M. Mašek. 0.3-m f/6.8 reflector + CCD.
(L87) Moonbase South Observatory, Hakos  (S23.236420 E16.361890)  Namibia.
   Observer G. Duszanowicz. 0.36-m f/7.7 reflector + CCD.
(M21) Schiaparelli Southern Observatory, Hakos  (S23.236549 E16.361440)
   Namibia.  Observers A. Aletti, F. Bellini, L. Buzzi, G. Galli. Measurer L.
   Buzzi. 0.36-m f/8.4 reflector + CCD.
(M49) IAS Remote Observatory, Hakos  (S23.236549 E16.361720)  Namibia.
(Q62) iTelescope Observatory, Siding Spring  (S31.273286 E149.064420)
   Australia/NSW.  Observers H. Sato, M. Urbanik. 0.51-m f/6.8 astrograph +
   CCD + f/4.5 focal reducer0.43-m f/6.8 astrograph + CCD + focal
   reducer0.43-m f/6.8 astrograph + CCD0.10-m f/5 astrograph + CCD0.127-m
   f/5.6 refractor + CCD0.50-m f/6.8 reflector + CCD0.30-m f/9 reflector +
   CCD.
(W68) ATLAS Chile, Rio Hurtado  (S30.471010 W70.764980)  Chile.  Observers L.
   Denneau, R. Siverd, J. Tonry, H. Weiland. Measurers L. Denneau, N.
   Erasmus, A. Fitzsimmons, A. Lawrence, J. Robinson, R. Siverd, J. Tonry, H.
   Weiland. 0.5-m reflector + CCD.
(W88) Slooh.com Chile Observatory, La Dehesa  (S33.269126 W70.534300)  Chile.
    Observers B. Lütkenhöner, K. Dankov, N. Paul. Measurers B. Lutkenhoner,
   G. Gašparović, Y. Chen, G. Y. Gasparovic, M. Kumrucu-Lohmiller, N. Paul,
   R. W. Anderson. 0.43-m f/6.8 Corrected Dall- Kirkham + CCD0.35-m f/11.0
   Schmidt-Cassegrain + CCD.
(X03) Observatoire SADR, Poroto  (S30.533914 W70.796390)  Chile.  Observers
   J. L. Virlichie, P. Traverse. 0.35-m f/4.7 Newtonian reflector + CCD.
(X07) iTelescope Deep Sky Chile, Rio Hurtado  (S30.526389 W70.853610)  Chile.
    Observer H. Sato.

Orbital elements:  A10UeAm
   Perihelion 2025 Feb 2.97034 +/- 0.229 TT = 23:17:17 (JD 2460709.47034)
Epoch 2023 Jun  8.0 TT = JDT 2460103.5   Sa: 0.1737              AutoNEOCP
q   5.18881700 +/- 0.000706         (J2000 ecliptic)
H    9.77 G 0.15                    Peri.  265.56364 +/- 0.009
                                    Node   109.44007 +/- 0.0023
e   1.0042676 +/- 0.00103           Incl.  145.95156 +/- 0.0023
From 69 observations 2023 Mar. 28-June 8; mean residual 0".41
Residuals in arcseconds: 
230328 W68  .35-  .95+    230406 X03  .78+  .01-    230502 X07  .12+  .11-    
230328 W68  .08-  .69+    230406 X03  .37-  1.5-    230502 X07  .05+  .22-    
230328 W68  .44-  .92+    230406 X03  .09+  1.3-    230507 X07  .26+  .07+    
230328 W68  .21-  .66+    230406 X03  .79+  .24-    230507 X07  .17-  .11-    
230329 807  .11+  .13-    230407 W88  .26-  .03-    230509 L87  .95-  .20+    
230329 807  .34-  .29-    230407 W88  .51-  .13-    230509 L87  .36-  1.2+    
230329 807  .19+  .05-    230408 W88  .02+  .14+    230509 L87  .14+  1.2+    
230329 X07  .02+  .14-    230408 W88  .30-  .21+    230518 859  .93+  .11-    
230329 X07  .15+  .02+    230413 M49  .38+  .28-    230518 859  .20-  .01-    
230330 807  .29+  .14+    230413 M49  .21+  .18-    230518 859  .50-  .20-    
230330 807  .00   .00     230413 M49  .47+  .43-    230527 M21  .15+  .52+    
230330 807  .07+  .14-    230417 Q62  .17-  .11-    230527 M21  .51+  .50+    
230331 W88  .10+  .20-    230417 Q62  .21-  .07-    230531 X07  .23+  .11+    
230331 W88  .12+  .17-    230417 Q62  .24+  .38+    230531 X07  .15-  .12+    
230331 Q62  .18-  .18+    230421 I47  .32+  .81-    230531 X07  .07-  .18-    
230331 Q62  .49+  .39+    230421 I47  .18+  .11+    230531 M49  .31-  .03-    
230401 Q62  .33-  .03+    230424 W68  .07+  .01-    230531 M49  .41-  .18+    
230401 Q62  .59-  .50+    230424 W68  .18-  .26+    230531 M49  .05+  .22-    
230401 Q62  .72-  .06+    230424 W68  .62-  .26+    230601 X07  .01-  .67-    
230404 Q62  .32-  .50-    230424 W68  .05+  .10+    230601 X07  .08-  .15-    
230404 Q62  .50+  .01-    230502 X07  .08+  .30-    230608 L87  .02-  .44+    
230406 X03  .89+  .20-    230502 X07  .05+  .18-    230608 L87  .17-  .09-    
